Time,TemperatureF,DewpointF,PressureIn,WindDirection,WindDirectionDegrees,WindSpeedMPH,WindSpeedGustMPH,Humidity,HourlyPrecipIn,Conditions,Clouds,dailyrainin,SoftwareType,DateUTC
2013-04-19 00:03:00,29.5,10.3,30.02,North,0,0.0,0.0,44,0.00,,SKC,0.00,VWS V13.00,2013-04-19 06:03:00,
2013-04-19 00:08:00,29.3,10.1,30.02,North,0,0.0,0.0,44,0.00,,SKC,0.00,VWS V13.00,2013-04-19 06:08:00,
2013-04-19 00:13:00,28.9,9.8,30.02,North,0,0.0,0.0,44,0.00,,SKC,0.00,VWS V13.00,2013-04-19 06:13:00,
2013-04-19 00:18:00,28.6,8.9,30.02,North,0,0.0,0.0,43,0.00,,SKC,0.00,VWS V13.00,2013-04-19 06:18:00,
2013-04-19 00:23:00,28.2,9.1,30.02,North,0,0.0,0.0,44,0.00,,SKC,0.00,VWS V13.00,2013-04-19 06:23:00,
2013-04-19 00:28:00,27.9,8.8,30.02,North,0,0.0,0.0,44,0.00,,SKC,0.00,VWS V13.00,2013-04-19 06:28:00,
2013-04-19 00:33:00,27.9,9.3,30.02,North,0,0.0,0.0,45,0.00,,SKC,0.00,VWS V13.00,2013-04-19 06:33:00,
2013-04-19 00:39:00,27.9,9.3,30.02,North,0,0.0,0.0,45,0.00,,SKC,0.00,VWS V13.00,2013-04-19 06:39:00,
2013-04-19 00:44:00,27.7,9.6,30.02,North,0,0.0,0.0,46,0.00,,SKC,0.00,VWS V13.00,2013-04-19 06:44:00,
2013-04-19 00:49:00,27.5,9.4,30.02,North,0,0.0,0.0,46,0.00,,SKC,0.00,VWS V13.00,2013-04-19 06:49:00,
2013-04-19 00:54:00,27.1,9.1,30.02,North,0,0.0,0.0,46,0.00,,SKC,0.00,VWS V13.00,2013-04-19 06:54:00,
2013-04-19 00:59:00,27.0,8.9,30.02,North,0,0.0,0.0,46,0.00,,SKC,0.00,VWS V13.00,2013-04-19 06:59:00,
2013-04-19 01:04:00,26.8,9.3,30.02,North,0,0.0,0.0,47,0.00,,SKC,0.00,VWS V13.00,2013-04-19 07:04:00,
2013-04-19 01:09:00,26.8,9.3,30.02,North,0,0.0,0.0,47,0.00,,SKC,0.00,VWS V13.00,2013-04-19 07:09:00,
2013-04-19 01:14:00,26.6,9.6,30.02,North,0,0.0,0.0,48,0.00,,SKC,0.00,VWS V13.00,2013-04-19 07:14:00,
2013-04-19 01:19:00,26.6,10.0,30.02,North,0,0.0,0.0,49,0.00,,SKC,0.00,VWS V13.00,2013-04-19 07:19:00,
2013-04-19 01:24:00,26.4,9.9,30.02,North,0,0.0,0.0,49,0.00,,SKC,0.00,VWS V13.00,2013-04-19 07:24:00,
2013-04-19 01:29:00,26.4,9.9,30.02,North,0,0.0,0.0,49,0.00,,SKC,0.00,VWS V13.00,2013-04-19 07:29:00,
2013-04-19 01:34:00,26.2,9.7,30.02,North,0,0.0,0.0,49,0.00,,SKC,0.00,VWS V13.00,2013-04-19 07:34:00,
2013-04-19 01:39:00,26.1,9.5,30.02,North,0,0.0,0.0,49,0.00,,SKC,0.00,VWS V13.00,2013-04-19 07:39:00,
2013-04-19 01:44:00,26.1,9.5,30.02,North,0,0.0,0.0,49,0.00,,SKC,0.00,VWS V13.00,2013-04-19 07:44:00,
2013-04-19 01:49:00,25.9,9.8,30.02,North,0,0.0,0.0,50,0.00,,SKC,0.00,VWS V13.00,2013-04-19 07:49:00,
2013-04-19 01:54:00,25.9,9.8,30.02,North,0,0.0,0.0,50,0.00,,SKC,0.00,VWS V13.00,2013-04-19 07:54:00,
2013-04-19 01:59:00,25.7,9.6,30.02,North,0,0.0,0.0,50,0.00,,SKC,0.00,VWS V13.00,2013-04-19 07:59:00,
2013-04-19 02:04:00,25.5,9.5,30.02,North,0,0.0,0.0,50,0.00,,SKC,0.00,VWS V13.00,2013-04-19 08:04:00,
2013-04-19 02:10:00,25.5,9.9,30.02,North,0,0.0,0.0,51,0.00,,SKC,0.00,VWS V13.00,2013-04-19 08:10:00,
2013-04-19 02:15:00,25.3,9.3,30.02,North,0,0.0,0.0,50,0.00,,SKC,0.00,VWS V13.00,2013-04-19 08:15:00,
2013-04-19 02:20:00,25.3,9.8,30.02,North,0,0.0,0.0,51,0.00,,SKC,0.00,VWS V13.00,2013-04-19 08:20:00,
2013-04-19 02:25:00,25.3,9.8,30.02,North,0,0.0,0.0,51,0.00,,SKC,0.00,VWS V13.00,2013-04-19 08:25:00,
2013-04-19 02:30:00,25.3,9.8,30.02,North,0,0.0,0.0,51,0.00,,SKC,0.00,VWS V13.00,2013-04-19 08:30:00,
2013-04-19 02:35:00,25.3,9.8,30.02,North,0,0.0,0.0,51,0.00,,SKC,0.00,VWS V13.00,2013-04-19 08:35:00,
2013-04-19 02:40:00,25.3,9.3,30.02,North,0,0.0,0.0,50,0.00,,SKC,0.00,VWS V13.00,2013-04-19 08:40:00,
2013-04-19 02:45:00,25.3,9.3,30.02,North,0,0.0,0.0,50,0.00,,SKC,0.00,VWS V13.00,2013-04-19 08:45:00,
2013-04-19 02:50:00,25.2,9.1,30.02,North,0,0.0,0.0,50,0.00,,SKC,0.00,VWS V13.00,2013-04-19 08:50:00,
2013-04-19 02:55:00,25.2,9.6,30.02,North,0,0.0,0.0,51,0.00,,SKC,0.00,VWS V13.00,2013-04-19 08:55:00,
2013-04-19 03:00:00,25.0,9.4,29.99,North,0,0.0,0.0,51,0.00,,SKC,0.00,VWS V13.00,2013-04-19 09:00:00,
2013-04-19 03:05:00,25.0,9.4,29.99,North,0,0.0,0.0,51,0.00,,SKC,0.00,VWS V13.00,2013-04-19 09:05:00,
2013-04-19 03:10:00,25.0,9.4,29.99,North,0,0.0,0.0,51,0.00,,SKC,0.00,VWS V13.00,2013-04-19 09:10:00,
2013-04-19 03:15:00,24.8,9.2,29.99,North,0,0.0,0.0,51,0.00,,SKC,0.00,VWS V13.00,2013-04-19 09:15:00,
2013-04-19 03:20:00,24.8,9.7,29.99,North,0,0.0,0.0,52,0.00,,SKC,0.00,VWS V13.00,2013-04-19 09:20:00,
2013-04-19 03:25:00,24.8,9.7,29.99,North,0,0.0,0.0,52,0.00,,SKC,0.00,VWS V13.00,2013-04-19 09:25:00,
2013-04-19 03:30:00,24.6,9.5,29.99,North,0,0.0,0.0,52,0.00,,SKC,0.00,VWS V13.00,2013-04-19 09:30:00,
2013-04-19 03:35:00,24.6,9.5,29.99,North,0,0.0,0.0,52,0.00,,SKC,0.00,VWS V13.00,2013-04-19 09:35:00,
2013-04-19 03:40:00,24.4,9.4,29.99,North,0,0.0,0.0,52,0.00,,SKC,0.00,VWS V13.00,2013-04-19 09:40:00,
2013-04-19 03:45:00,24.6,9.5,29.99,North,0,0.0,0.0,52,0.00,,SKC,0.00,VWS V13.00,2013-04-19 09:45:00,
2013-04-19 03:51:00,24.8,9.7,29.99,North,0,0.0,0.0,52,0.00,,SKC,0.00,VWS V13.00,2013-04-19 09:51:00,
2013-04-19 03:56:00,25.0,9.4,29.99,North,0,0.0,0.0,51,0.00,,SKC,0.00,VWS V13.00,2013-04-19 09:56:00,
2013-04-19 04:01:00,24.8,9.7,29.99,North,0,0.0,0.0,52,0.00,,SKC,0.00,VWS V13.00,2013-04-19 10:01:00,
2013-04-19 04:06:00,24.8,9.7,29.99,North,0,0.0,0.0,52,0.00,,SKC,0.00,VWS V13.00,2013-04-19 10:06:00,
2013-04-19 04:11:00,24.8,9.7,29.99,North,0,0.0,0.0,52,0.00,,SKC,0.00,VWS V13.00,2013-04-19 10:11:00,
2013-04-19 04:16:00,24.8,9.7,29.99,North,0,0.0,0.0,52,0.00,,SKC,0.00,VWS V13.00,2013-04-19 10:16:00,
2013-04-19 04:21:00,24.6,9.5,29.99,North,0,0.0,0.0,52,0.00,,SKC,0.00,VWS V13.00,2013-04-19 10:21:00,
2013-04-19 04:26:00,24.6,9.5,29.99,North,0,0.0,0.0,52,0.00,,SKC,0.00,VWS V13.00,2013-04-19 10:26:00,
2013-04-19 04:31:00,24.6,9.9,29.99,North,0,0.0,0.0,53,0.00,,SKC,0.00,VWS V13.00,2013-04-19 10:31:00,
2013-04-19 04:36:00,24.6,9.5,29.99,North,0,0.0,0.0,52,0.00,,SKC,0.00,VWS V13.00,2013-04-19 10:36:00,
2013-04-19 04:41:00,24.4,9.4,29.99,North,0,0.0,0.0,52,0.00,,SKC,0.00,VWS V13.00,2013-04-19 10:41:00,
2013-04-19 04:46:00,24.4,9.4,29.99,North,0,0.0,0.0,52,0.00,,SKC,0.00,VWS V13.00,2013-04-19 10:46:00,
2013-04-19 04:51:00,24.6,9.5,29.99,North,0,0.0,0.0,52,0.00,,SKC,0.00,VWS V13.00,2013-04-19 10:51:00,
2013-04-19 04:56:00,24.4,9.4,29.99,North,0,0.0,0.0,52,0.00,,SKC,0.00,VWS V13.00,2013-04-19 10:56:00,
2013-04-19 05:01:00,24.4,9.4,29.99,North,0,0.0,0.0,52,0.00,,SKC,0.00,VWS V13.00,2013-04-19 11:01:00,
2013-04-19 05:06:00,24.4,9.4,29.99,North,0,0.0,0.0,52,0.00,,SKC,0.00,VWS V13.00,2013-04-19 11:06:00,
2013-04-19 05:11:00,24.4,9.8,29.99,North,0,0.0,0.0,53,0.00,,SKC,0.00,VWS V13.00,2013-04-19 11:11:00,
2013-04-19 05:16:00,24.4,9.8,29.99,North,0,0.0,0.0,53,0.00,,SKC,0.00,VWS V13.00,2013-04-19 11:16:00,
2013-04-19 05:21:00,24.4,9.8,29.99,North,0,0.0,0.0,53,0.00,,SKC,0.00,VWS V13.00,2013-04-19 11:21:00,
2013-04-19 05:26:00,24.4,9.8,29.99,North,0,0.0,0.0,53,0.00,,SKC,0.00,VWS V13.00,2013-04-19 11:26:00,
2013-04-19 05:32:00,24.4,9.8,29.99,North,0,0.0,0.0,53,0.00,,SKC,0.00,VWS V13.00,2013-04-19 11:32:00,
2013-04-19 05:37:00,24.6,9.9,29.99,North,0,0.0,0.0,53,0.00,,SKC,0.00,VWS V13.00,2013-04-19 11:37:00,
2013-04-19 05:42:00,24.8,10.1,29.99,North,0,0.0,0.0,53,0.00,,SKC,0.00,VWS V13.00,2013-04-19 11:42:00,
2013-04-19 05:47:00,25.0,10.3,29.99,North,0,0.0,0.0,53,0.00,,SKC,0.00,VWS V13.00,2013-04-19 11:47:00,
2013-04-19 05:52:00,25.0,10.3,29.99,North,0,0.0,0.0,53,0.00,,SKC,0.00,VWS V13.00,2013-04-19 11:52:00,
2013-04-19 05:57:00,25.2,10.4,29.99,North,0,0.0,0.0,53,0.00,,SKC,0.00,VWS V13.00,2013-04-19 11:57:00,
2013-04-19 06:02:00,25.3,10.6,29.99,North,0,0.0,0.0,53,0.00,,SKC,0.00,VWS V13.00,2013-04-19 12:02:00,
2013-04-19 06:07:00,25.3,10.6,29.99,North,0,0.0,0.0,53,0.00,,SKC,0.00,VWS V13.00,2013-04-19 12:07:00,
2013-04-19 06:12:00,25.5,10.8,29.96,North,0,0.0,0.0,53,0.00,,SKC,0.00,VWS V13.00,2013-04-19 12:12:00,
2013-04-19 06:17:00,25.5,10.8,29.96,North,0,0.0,0.0,53,0.00,,SKC,0.00,VWS V13.00,2013-04-19 12:17:00,
2013-04-19 06:22:00,25.5,10.8,29.96,North,0,0.0,0.0,53,0.00,,SKC,0.00,VWS V13.00,2013-04-19 12:22:00,
2013-04-19 06:27:00,25.7,10.9,29.96,North,0,0.0,0.0,53,0.00,,SKC,0.00,VWS V13.00,2013-04-19 12:27:00,
2013-04-19 06:32:00,25.7,10.9,29.96,North,0,0.0,0.0,53,0.00,,SKC,0.00,VWS V13.00,2013-04-19 12:32:00,
2013-04-19 06:37:00,25.7,10.9,29.96,North,0,0.0,0.0,53,0.00,,SKC,0.00,VWS V13.00,2013-04-19 12:37:00,
2013-04-19 06:42:00,26.1,11.3,29.99,North,0,0.0,0.0,53,0.00,,SKC,0.00,VWS V13.00,2013-04-19 12:42:00,
2013-04-19 06:47:00,26.1,10.9,29.99,North,0,0.0,0.0,52,0.00,,SKC,0.00,VWS V13.00,2013-04-19 12:47:00,
2013-04-19 06:53:00,26.2,11.0,29.99,North,0,0.0,0.0,52,0.00,,SKC,0.00,VWS V13.00,2013-04-19 12:53:00,
2013-04-19 06:58:00,26.2,11.0,29.99,North,0,0.0,0.0,52,0.00,,SKC,0.00,VWS V13.00,2013-04-19 12:58:00,
2013-04-19 07:03:00,26.4,11.2,29.99,North,0,0.0,0.0,52,0.00,,SKC,0.00,VWS V13.00,2013-04-19 13:03:00,
2013-04-19 07:08:00,26.6,11.4,29.99,North,0,0.0,0.0,52,0.00,,SKC,0.00,VWS V13.00,2013-04-19 13:08:00,
2013-04-19 07:13:00,27.0,11.7,29.96,North,0,0.0,0.0,52,0.00,,SKC,0.00,VWS V13.00,2013-04-19 13:13:00,
2013-04-19 07:18:00,27.5,12.2,29.96,North,0,0.0,0.0,52,0.00,,SKC,0.00,VWS V13.00,2013-04-19 13:18:00,
2013-04-19 07:23:00,27.9,11.2,29.96,North,0,0.0,0.0,49,0.00,,SKC,0.00,VWS V13.00,2013-04-19 13:23:00,
2013-04-19 07:28:00,28.6,10.4,29.99,North,0,0.0,0.0,46,0.00,,SKC,0.00,VWS V13.00,2013-04-19 13:28:00,
2013-04-19 07:33:00,28.9,10.8,29.99,North,0,0.0,0.0,46,0.00,,SKC,0.00,VWS V13.00,2013-04-19 13:33:00,
2013-04-19 07:38:00,29.5,11.3,29.99,North,0,0.0,0.0,46,0.00,,SKC,0.00,VWS V13.00,2013-04-19 13:38:00,
2013-04-19 07:43:00,29.8,11.1,29.99,North,0,0.0,0.0,45,0.00,,SKC,0.00,VWS V13.00,2013-04-19 13:43:00,
2013-04-19 07:48:00,30.2,10.9,29.99,North,0,0.0,0.0,44,0.00,,SKC,0.00,VWS V13.00,2013-04-19 13:48:00,
2013-04-19 07:53:00,30.4,10.6,29.99,North,0,0.0,0.0,43,0.00,,SKC,0.00,VWS V13.00,2013-04-19 13:53:00,
2013-04-19 07:58:00,30.7,10.4,29.96,North,0,0.0,0.0,42,0.00,,SKC,0.00,VWS V13.00,2013-04-19 13:58:00,
2013-04-19 08:03:00,30.9,10.5,29.96,North,0,0.0,0.0,42,0.00,,SKC,0.00,VWS V13.00,2013-04-19 14:03:00,
2013-04-19 08:08:00,30.9,10.5,29.96,North,0,0.0,0.0,42,0.00,,SKC,0.00,VWS V13.00,2013-04-19 14:08:00,
2013-04-19 08:13:00,30.9,11.1,29.96,North,0,0.0,0.0,43,0.00,,SKC,0.00,VWS V13.00,2013-04-19 14:13:00,
2013-04-19 08:18:00,31.1,11.2,29.96,North,0,0.0,0.0,43,0.00,,SKC,0.00,VWS V13.00,2013-04-19 14:18:00,
2013-04-19 08:23:00,31.1,10.7,29.96,North,0,0.0,0.0,42,0.00,,SKC,0.00,VWS V13.00,2013-04-19 14:23:00,
2013-04-19 08:28:00,31.1,11.2,29.96,North,0,0.0,0.0,43,0.00,,SKC,0.00,VWS V13.00,2013-04-19 14:28:00,
2013-04-19 08:33:00,31.1,11.2,29.96,North,0,0.0,0.0,43,0.00,,SKC,0.00,VWS V13.00,2013-04-19 14:33:00,
2013-04-19 08:38:00,31.1,11.2,29.96,North,0,0.0,0.0,43,0.00,,SKC,0.00,VWS V13.00,2013-04-19 14:38:00,
2013-04-19 08:43:00,31.3,11.4,29.99,North,0,0.0,0.0,43,0.00,,SKC,0.00,VWS V13.00,2013-04-19 14:43:00,
2013-04-19 08:49:00,31.5,11.0,29.99,North,0,0.0,0.0,42,0.00,,SKC,0.00,VWS V13.00,2013-04-19 14:49:00,
2013-04-19 08:54:00,31.6,11.2,29.99,North,0,0.0,0.0,42,0.00,,SKC,0.00,VWS V13.00,2013-04-19 14:54:00,
2013-04-19 08:59:00,31.8,11.4,29.99,North,0,0.0,0.0,42,0.00,,SKC,0.00,VWS V13.00,2013-04-19 14:59:00,
2013-04-19 09:04:00,32.0,11.5,29.99,North,0,0.0,0.0,42,0.00,,SKC,0.00,VWS V13.00,2013-04-19 15:04:00,
2013-04-19 09:09:00,32.5,12.0,29.99,North,0,0.0,0.0,42,0.00,,SKC,0.00,VWS V13.00,2013-04-19 15:09:00,
2013-04-19 09:14:00,32.9,12.3,29.96,North,0,0.0,0.0,42,0.00,,SKC,0.00,VWS V13.00,2013-04-19 15:14:00,
2013-04-19 09:19:00,33.1,12.5,29.96,North,0,0.0,0.0,42,0.00,,SKC,0.00,VWS V13.00,2013-04-19 15:19:00,
2013-04-19 09:24:00,33.4,12.3,29.96,North,0,0.0,0.0,41,0.00,,SKC,0.00,VWS V13.00,2013-04-19 15:24:00,
2013-04-19 09:29:00,33.8,12.6,29.96,North,0,0.0,0.0,41,0.00,,SKC,0.00,VWS V13.00,2013-04-19 15:29:00,
2013-04-19 09:34:00,34.2,12.9,29.96,North,0,0.0,0.0,41,0.00,,SKC,0.00,VWS V13.00,2013-04-19 15:34:00,
2013-04-19 09:39:00,34.5,13.3,29.96,North,0,0.0,0.0,41,0.00,,SKC,0.00,VWS V13.00,2013-04-19 15:39:00,
2013-04-19 09:44:00,35.1,13.8,29.96,North,0,0.0,0.0,41,0.00,,SKC,0.00,VWS V13.00,2013-04-19 15:44:00,
2013-04-19 09:49:00,35.6,14.2,29.96,North,0,0.0,0.0,41,0.00,,SKC,0.00,VWS V13.00,2013-04-19 15:49:00,
2013-04-19 09:54:00,35.8,13.8,29.96,North,0,0.0,0.0,40,0.00,,SKC,0.00,VWS V13.00,2013-04-19 15:54:00,
2013-04-19 09:59:00,36.1,14.7,29.96,North,0,0.0,0.0,41,0.00,,SKC,0.00,VWS V13.00,2013-04-19 15:59:00,
2013-04-19 10:04:00,36.5,14.5,29.96,North,0,0.0,0.0,40,0.00,,SKC,0.00,VWS V13.00,2013-04-19 16:04:00,
2013-04-19 10:09:00,36.7,14.6,29.96,North,0,0.0,0.0,40,0.00,,SKC,0.00,VWS V13.00,2013-04-19 16:09:00,
2013-04-19 10:14:00,36.7,14.6,29.96,North,0,0.0,0.0,40,0.00,,SKC,0.00,VWS V13.00,2013-04-19 16:14:00,
2013-04-19 10:19:00,36.9,14.8,29.96,North,0,0.0,0.0,40,0.00,,SKC,0.00,VWS V13.00,2013-04-19 16:19:00,
2013-04-19 10:24:00,37.0,15.0,29.96,North,0,0.0,0.0,40,0.00,,SKC,0.00,VWS V13.00,2013-04-19 16:24:00,
2013-04-19 10:30:00,37.6,15.5,29.96,North,0,0.0,0.0,40,0.00,,SKC,0.00,VWS V13.00,2013-04-19 16:30:00,
2013-04-19 10:35:00,37.8,15.6,29.96,North,0,0.0,0.0,40,0.00,,SKC,0.00,VWS V13.00,2013-04-19 16:35:00,
2013-04-19 10:40:00,37.9,15.2,29.96,North,0,0.0,0.0,39,0.00,,SKC,0.00,VWS V13.00,2013-04-19 16:40:00,
2013-04-19 10:45:00,38.3,15.5,29.96,North,0,0.0,0.0,39,0.00,,SKC,0.00,VWS V13.00,2013-04-19 16:45:00,
2013-04-19 10:50:00,38.8,16.6,29.96,North,0,0.0,0.0,40,0.00,,SKC,0.00,VWS V13.00,2013-04-19 16:50:00,
2013-04-19 10:55:00,39.6,16.7,29.96,North,0,0.0,0.0,39,0.00,,SKC,0.00,VWS V13.00,2013-04-19 16:55:00,
2013-04-19 11:00:00,40.1,17.7,29.96,North,0,0.0,0.0,40,0.00,,SKC,0.00,VWS V13.00,2013-04-19 17:00:00,
2013-04-19 11:05:00,40.6,18.8,29.96,North,0,0.0,0.0,41,0.00,,SKC,0.00,VWS V13.00,2013-04-19 17:05:00,
2013-04-19 11:10:00,41.5,19.0,29.96,North,0,0.0,0.0,40,0.00,,SKC,0.00,VWS V13.00,2013-04-19 17:10:00,
2013-04-19 11:15:00,41.7,19.2,29.96,North,0,0.0,0.0,40,0.00,,SKC,0.00,VWS V13.00,2013-04-19 17:15:00,
2013-04-19 11:20:00,42.3,20.3,29.96,North,0,0.0,0.0,41,0.00,,SKC,0.00,VWS V13.00,2013-04-19 17:20:00,
2013-04-19 11:25:00,42.6,20.6,29.96,North,0,0.0,0.0,41,0.00,,SKC,0.00,VWS V13.00,2013-04-19 17:25:00,
2013-04-19 11:30:00,42.3,20.3,29.96,North,0,0.0,0.0,41,0.00,,SKC,0.00,VWS V13.00,2013-04-19 17:30:00,
2013-04-19 11:35:00,42.1,20.1,29.96,North,0,0.0,0.0,41,0.00,,SKC,0.00,VWS V13.00,2013-04-19 17:35:00,
2013-04-19 11:40:00,42.3,20.8,29.96,North,0,0.0,0.0,42,0.00,,SKC,0.00,VWS V13.00,2013-04-19 17:40:00,
2013-04-19 11:45:00,42.4,20.4,29.96,North,0,0.0,0.0,41,0.00,,SKC,0.00,VWS V13.00,2013-04-19 17:45:00,
2013-04-19 11:50:00,42.6,21.1,29.96,North,0,0.0,0.0,42,0.00,,SKC,0.00,VWS V13.00,2013-04-19 17:50:00,
2013-04-19 11:55:00,42.8,20.8,29.96,North,0,0.0,0.0,41,0.00,,SKC,0.00,VWS V13.00,2013-04-19 17:55:00,
2013-04-19 12:00:00,42.6,21.1,29.96,North,0,0.0,0.0,42,0.00,,SKC,0.00,VWS V13.00,2013-04-19 18:00:00,
2013-04-19 12:05:00,42.1,20.7,29.96,North,0,0.0,0.0,42,0.00,,SKC,0.00,VWS V13.00,2013-04-19 18:05:00,
2013-04-19 12:10:00,42.3,21.4,29.96,North,0,0.0,0.0,43,0.00,,SKC,0.00,VWS V13.00,2013-04-19 18:10:00,
2013-04-19 12:15:00,42.6,21.1,29.96,North,0,0.0,0.0,42,0.00,,SKC,0.00,VWS V13.00,2013-04-19 18:15:00,
2013-04-19 12:20:00,42.6,21.1,29.96,North,0,0.0,0.0,42,0.00,,SKC,0.00,VWS V13.00,2013-04-19 18:20:00,
2013-04-19 12:26:00,42.4,21.0,29.96,North,0,0.0,0.0,42,0.00,,SKC,0.00,VWS V13.00,2013-04-19 18:26:00,
2013-04-19 12:31:00,42.6,21.1,29.96,North,0,0.0,0.0,42,0.00,,SKC,0.00,VWS V13.00,2013-04-19 18:31:00,
2013-04-19 12:36:00,42.3,20.3,29.96,North,0,0.0,0.0,41,0.00,,SKC,0.00,VWS V13.00,2013-04-19 18:36:00,
2013-04-19 12:41:00,42.3,20.8,29.96,North,0,0.0,0.0,42,0.00,,SKC,0.00,VWS V13.00,2013-04-19 18:41:00,
2013-04-19 12:46:00,42.3,20.8,29.96,North,0,0.0,0.0,42,0.00,,SKC,0.00,VWS V13.00,2013-04-19 18:46:00,
2013-04-19 12:51:00,42.3,20.3,29.96,North,0,0.0,0.0,41,0.00,,SKC,0.00,VWS V13.00,2013-04-19 18:51:00,
2013-04-19 12:56:00,41.9,20.5,29.96,North,0,0.0,0.0,42,0.00,,SKC,0.00,VWS V13.00,2013-04-19 18:56:00,
2013-04-19 13:01:00,41.7,20.9,29.96,North,0,0.0,0.0,43,0.00,,SKC,0.00,VWS V13.00,2013-04-19 19:01:00,
2013-04-19 13:06:00,41.7,20.9,29.96,North,0,0.0,0.0,43,0.00,,SKC,0.00,VWS V13.00,2013-04-19 19:06:00,
2013-04-19 13:11:00,41.4,20.6,29.96,North,0,0.0,0.0,43,0.00,,SKC,0.00,VWS V13.00,2013-04-19 19:11:00,
2013-04-19 13:16:00,42.3,21.9,29.93,North,0,0.0,0.0,44,0.00,,SKC,0.00,VWS V13.00,2013-04-19 19:16:00,
2013-04-19 13:21:00,42.8,21.9,29.93,North,0,0.0,0.0,43,0.00,,SKC,0.00,VWS V13.00,2013-04-19 19:21:00,
2013-04-19 13:26:00,44.1,22.5,29.93,North,0,0.0,0.0,42,0.00,,SKC,0.00,VWS V13.00,2013-04-19 19:26:00,
2013-04-19 13:31:00,44.8,23.1,29.93,North,0,0.0,0.0,42,0.00,,SKC,0.00,VWS V13.00,2013-04-19 19:31:00,
2013-04-19 13:36:00,44.8,22.0,29.93,North,0,0.0,0.0,40,0.00,,SKC,0.00,VWS V13.00,2013-04-19 19:36:00,
2013-04-19 13:41:00,44.6,21.8,29.93,North,0,0.0,0.0,40,0.00,,SKC,0.00,VWS V13.00,2013-04-19 19:41:00,
2013-04-19 13:46:00,45.5,22.6,29.93,North,0,0.0,0.0,40,0.00,,SKC,0.00,VWS V13.00,2013-04-19 19:46:00,
2013-04-19 13:51:00,46.4,22.8,29.93,North,0,0.0,0.0,39,0.00,,SKC,0.00,VWS V13.00,2013-04-19 19:51:00,
2013-04-19 13:56:00,47.1,23.5,29.93,North,0,0.0,0.0,39,0.00,,SKC,0.00,VWS V13.00,2013-04-19 19:56:00,
2013-04-19 14:02:00,47.7,23.3,29.93,North,0,0.0,0.0,38,0.00,,SKC,0.00,VWS V13.00,2013-04-19 20:02:00,
2013-04-19 14:07:00,47.8,23.5,29.93,North,0,0.0,0.0,38,0.00,,SKC,0.00,VWS V13.00,2013-04-19 20:07:00,
2013-04-19 14:12:00,48.6,24.1,29.93,North,0,0.0,0.0,38,0.00,,SKC,0.00,VWS V13.00,2013-04-19 20:12:00,
2013-04-19 14:17:00,49.1,24.0,29.93,North,0,0.0,0.0,37,0.00,,SKC,0.00,VWS V13.00,2013-04-19 20:17:00,
2013-04-19 14:22:00,49.1,24.0,29.93,North,0,0.0,0.0,37,0.00,,SKC,0.00,VWS V13.00,2013-04-19 20:22:00,
2013-04-19 14:27:00,49.3,24.1,29.93,North,0,0.0,0.0,37,0.00,,SKC,0.00,VWS V13.00,2013-04-19 20:27:00,
2013-04-19 14:32:00,49.3,24.1,29.93,North,0,0.0,0.0,37,0.00,,SKC,0.00,VWS V13.00,2013-04-19 20:32:00,
2013-04-19 14:37:00,49.1,24.0,29.93,North,0,0.0,0.0,37,0.00,,SKC,0.00,VWS V13.00,2013-04-19 20:37:00,
2013-04-19 14:42:00,48.7,23.6,29.91,North,0,0.0,0.0,37,0.00,,SKC,0.00,VWS V13.00,2013-04-19 20:42:00,
2013-04-19 14:47:00,48.0,23.6,29.91,North,0,0.0,0.0,38,0.00,,SKC,0.00,VWS V13.00,2013-04-19 20:47:00,
2013-04-19 14:52:00,47.8,23.5,29.91,North,0,0.0,0.0,38,0.00,,SKC,0.00,VWS V13.00,2013-04-19 20:52:00,
2013-04-19 14:57:00,47.7,23.9,29.91,North,0,0.0,0.0,39,0.00,,SKC,0.00,VWS V13.00,2013-04-19 20:57:00,
2013-04-19 15:02:00,47.3,23.6,29.91,North,0,0.0,0.0,39,0.00,,SKC,0.00,VWS V13.00,2013-04-19 21:02:00,
2013-04-19 15:07:00,47.1,23.5,29.91,North,0,0.0,0.0,39,0.00,,SKC,0.00,VWS V13.00,2013-04-19 21:07:00,
2013-04-19 15:12:00,46.9,23.9,29.91,North,0,0.0,0.0,40,0.00,,SKC,0.00,VWS V13.00,2013-04-19 21:12:00,
2013-04-19 15:17:00,46.6,24.2,29.91,North,0,0.0,0.0,41,0.00,,SKC,0.00,VWS V13.00,2013-04-19 21:17:00,
2013-04-19 15:22:00,46.4,24.0,29.91,North,0,0.0,0.0,41,0.00,,SKC,0.00,VWS V13.00,2013-04-19 21:22:00,
2013-04-19 15:27:00,45.9,24.1,29.91,North,0,0.0,0.0,42,0.00,,SKC,0.00,VWS V13.00,2013-04-19 21:27:00,
2013-04-19 15:32:00,45.5,24.3,29.91,North,0,0.0,0.0,43,0.00,,SKC,0.00,VWS V13.00,2013-04-19 21:32:00,
2013-04-19 15:37:00,45.0,24.9,29.91,North,0,0.0,0.0,45,0.00,,SKC,0.00,VWS V13.00,2013-04-19 21:37:00,
2013-04-19 15:42:00,45.5,25.4,29.91,North,0,0.0,0.0,45,0.00,,SKC,0.00,VWS V13.00,2013-04-19 21:42:00,
2013-04-19 15:47:00,45.9,26.3,29.91,North,0,0.0,0.0,46,0.00,,SKC,0.00,VWS V13.00,2013-04-19 21:47:00,
2013-04-19 15:53:00,44.8,25.8,29.91,North,0,0.0,0.0,47,0.00,,SKC,0.00,VWS V13.00,2013-04-19 21:53:00,
2013-04-19 15:58:00,44.8,26.3,29.91,North,0,0.0,0.0,48,0.00,,SKC,0.00,VWS V13.00,2013-04-19 21:58:00,
2013-04-19 16:03:00,44.2,26.3,29.91,North,0,0.0,0.0,49,0.00,,SKC,0.00,VWS V13.00,2013-04-19 22:03:00,
2013-04-19 16:08:00,44.1,26.6,29.91,North,0,0.0,0.0,50,0.00,,SKC,0.00,VWS V13.00,2013-04-19 22:08:00,
2013-04-19 16:13:00,43.3,26.0,29.91,North,0,0.0,0.0,50,0.00,,SKC,0.00,VWS V13.00,2013-04-19 22:13:00,
2013-04-19 16:18:00,43.5,26.1,29.91,North,0,0.0,0.0,50,0.00,,SKC,0.00,VWS V13.00,2013-04-19 22:18:00,
2013-04-19 16:23:00,43.5,26.6,29.91,North,0,0.0,0.0,51,0.00,,SKC,0.00,VWS V13.00,2013-04-19 22:23:00,
2013-04-19 16:28:00,43.3,26.4,29.88,North,0,0.0,0.0,51,0.00,,SKC,0.00,VWS V13.00,2013-04-19 22:28:00,
2013-04-19 16:33:00,42.8,25.9,29.88,North,0,0.0,0.0,51,0.00,,SKC,0.00,VWS V13.00,2013-04-19 22:33:00,
2013-04-19 16:38:00,42.4,26.5,29.88,North,0,0.0,0.0,53,0.00,,SKC,0.00,VWS V13.00,2013-04-19 22:38:00,
2013-04-19 16:43:00,42.1,26.6,29.88,North,0,0.0,0.0,54,0.00,,SKC,0.00,VWS V13.00,2013-04-19 22:43:00,
2013-04-19 16:48:00,42.1,26.6,29.88,North,0,0.0,0.0,54,0.00,,SKC,0.00,VWS V13.00,2013-04-19 22:48:00,
2013-04-19 16:53:00,41.9,26.0,29.88,North,0,0.0,0.0,53,0.00,,SKC,0.00,VWS V13.00,2013-04-19 22:53:00,
2013-04-19 16:58:00,41.9,26.5,29.88,North,0,0.0,0.0,54,0.00,,SKC,0.00,VWS V13.00,2013-04-19 22:58:00,
2013-04-19 17:03:00,42.3,26.8,29.88,North,0,0.0,0.0,54,0.00,,SKC,0.00,VWS V13.00,2013-04-19 23:03:00,
2013-04-19 17:08:00,42.4,26.5,29.88,North,0,0.0,0.0,53,0.00,,SKC,0.00,VWS V13.00,2013-04-19 23:08:00,
2013-04-19 17:13:00,42.4,26.1,29.88,North,0,0.0,0.0,52,0.00,,SKC,0.00,VWS V13.00,2013-04-19 23:13:00,
2013-04-19 17:18:00,42.4,26.1,29.88,North,0,0.0,0.0,52,0.00,,SKC,0.00,VWS V13.00,2013-04-19 23:18:00,
2013-04-19 17:23:00,42.6,25.8,29.88,North,0,0.0,0.0,51,0.00,,SKC,0.00,VWS V13.00,2013-04-19 23:23:00,
2013-04-19 17:29:00,43.0,25.6,29.88,North,0,0.0,0.0,50,0.00,,SKC,0.00,VWS V13.00,2013-04-19 23:29:00,
2013-04-19 17:34:00,43.5,25.1,29.88,North,0,0.0,0.0,48,0.00,,SKC,0.00,VWS V13.00,2013-04-19 23:34:00,
2013-04-19 17:39:00,43.7,25.3,29.88,North,0,0.0,0.0,48,0.00,,SKC,0.00,VWS V13.00,2013-04-19 23:39:00,
2013-04-19 17:44:00,43.9,25.5,29.88,North,0,0.0,0.0,48,0.00,,SKC,0.00,VWS V13.00,2013-04-19 23:44:00,
2013-04-19 17:49:00,44.1,25.6,29.88,North,0,0.0,0.0,48,0.00,,SKC,0.00,VWS V13.00,2013-04-19 23:49:00,
2013-04-19 17:54:00,44.1,25.6,29.88,North,0,0.0,0.0,48,0.00,,SKC,0.00,VWS V13.00,2013-04-19 23:54:00,
2013-04-19 17:59:00,44.2,24.8,29.88,North,0,0.0,0.0,46,0.00,,SKC,0.00,VWS V13.00,2013-04-19 23:59:00,
2013-04-19 18:04:00,44.6,25.6,29.88,North,0,0.0,0.0,47,0.00,,SKC,0.00,VWS V13.00,2013-04-20 00:04:00,
2013-04-19 18:09:00,45.0,25.4,29.88,North,0,0.0,0.0,46,0.00,,SKC,0.00,VWS V13.00,2013-04-20 00:09:00,
2013-04-19 18:14:00,45.0,25.4,29.88,North,0,0.0,0.0,46,0.00,,SKC,0.00,VWS V13.00,2013-04-20 00:14:00,
2013-04-19 18:19:00,45.1,25.6,29.88,North,0,0.0,0.0,46,0.00,,SKC,0.00,VWS V13.00,2013-04-20 00:19:00,
2013-04-19 18:24:00,45.1,25.1,29.88,North,0,0.0,0.0,45,0.00,,SKC,0.00,VWS V13.00,2013-04-20 00:24:00,
2013-04-19 18:29:00,45.1,25.1,29.88,North,0,0.0,0.0,45,0.00,,SKC,0.00,VWS V13.00,2013-04-20 00:29:00,
2013-04-19 18:34:00,44.8,24.8,29.88,North,0,0.0,0.0,45,0.00,,SKC,0.00,VWS V13.00,2013-04-20 00:34:00,
2013-04-19 18:39:00,44.4,25.0,29.88,North,0,0.0,0.0,46,0.00,,SKC,0.00,VWS V13.00,2013-04-20 00:39:00,
2013-04-19 18:44:00,43.9,25.5,29.85,North,0,0.0,0.0,48,0.00,,SKC,0.00,VWS V13.00,2013-04-20 00:44:00,
2013-04-19 18:49:00,43.5,25.1,29.85,North,0,0.0,0.0,48,0.00,,SKC,0.00,VWS V13.00,2013-04-20 00:49:00,
2013-04-19 18:54:00,43.2,25.3,29.85,North,0,0.0,0.0,49,0.00,,SKC,0.00,VWS V13.00,2013-04-20 00:54:00,
2013-04-19 18:59:00,42.8,25.0,29.85,North,0,0.0,0.0,49,0.00,,SKC,0.00,VWS V13.00,2013-04-20 00:59:00,
2013-04-19 19:04:00,42.4,25.1,29.85,North,0,0.0,0.0,50,0.00,,SKC,0.00,VWS V13.00,2013-04-20 01:04:00,
2013-04-19 19:09:00,42.4,25.1,29.85,North,0,0.0,0.0,50,0.00,,SKC,0.00,VWS V13.00,2013-04-20 01:09:00,
2013-04-19 19:14:00,42.3,25.0,29.85,North,0,0.0,0.0,50,0.00,,SKC,0.00,VWS V13.00,2013-04-20 01:14:00,
2013-04-19 19:19:00,42.1,24.8,29.85,North,0,0.0,0.0,50,0.00,,SKC,0.00,VWS V13.00,2013-04-20 01:19:00,
2013-04-19 19:24:00,41.9,24.6,29.85,North,0,0.0,0.0,50,0.00,,SKC,0.00,VWS V13.00,2013-04-20 01:24:00,
2013-04-19 19:29:00,41.7,24.9,29.85,North,0,0.0,0.0,51,0.00,,SKC,0.00,VWS V13.00,2013-04-20 01:29:00,
2013-04-19 19:34:00,41.5,24.8,29.85,North,0,0.0,0.0,51,0.00,,SKC,0.00,VWS V13.00,2013-04-20 01:34:00,
2013-04-19 19:39:00,41.5,24.8,29.85,North,0,0.0,0.0,51,0.00,,SKC,0.00,VWS V13.00,2013-04-20 01:39:00,
2013-04-19 19:45:00,41.5,25.2,29.85,North,0,0.0,0.0,52,0.00,,SKC,0.00,VWS V13.00,2013-04-20 01:45:00,
2013-04-19 19:50:00,41.4,24.6,29.85,North,0,0.0,0.0,51,0.00,,SKC,0.00,VWS V13.00,2013-04-20 01:50:00,
2013-04-19 19:55:00,41.5,25.2,29.85,North,0,0.0,0.0,52,0.00,,SKC,0.00,VWS V13.00,2013-04-20 01:55:00,
2013-04-19 20:00:00,41.5,25.2,29.85,North,0,0.0,0.0,52,0.00,,SKC,0.00,VWS V13.00,2013-04-20 02:00:00,
2013-04-19 20:05:00,41.5,24.8,29.85,North,0,0.0,0.0,51,0.00,,SKC,0.00,VWS V13.00,2013-04-20 02:05:00,
2013-04-19 20:10:00,41.5,24.8,29.85,North,0,0.0,0.0,51,0.00,,SKC,0.00,VWS V13.00,2013-04-20 02:10:00,
2013-04-19 20:15:00,41.5,24.8,29.85,North,0,0.0,0.0,51,0.00,,SKC,0.00,VWS V13.00,2013-04-20 02:15:00,
2013-04-19 20:20:00,41.5,24.3,29.85,North,0,0.0,0.0,50,0.00,,SKC,0.00,VWS V13.00,2013-04-20 02:20:00,
2013-04-19 20:25:00,41.2,24.4,29.85,North,0,0.0,0.0,51,0.00,,SKC,0.00,VWS V13.00,2013-04-20 02:25:00,
2013-04-19 20:30:00,41.2,24.9,29.85,North,0,0.0,0.0,52,0.00,,SKC,0.00,VWS V13.00,2013-04-20 02:30:00,
2013-04-19 20:35:00,41.2,24.9,29.85,North,0,0.0,0.0,52,0.00,,SKC,0.00,VWS V13.00,2013-04-20 02:35:00,
2013-04-19 20:40:00,41.0,24.7,29.85,North,0,0.0,0.0,52,0.00,,SKC,0.00,VWS V13.00,2013-04-20 02:40:00,
2013-04-19 20:45:00,41.0,24.7,29.85,North,0,0.0,0.0,52,0.00,,SKC,0.00,VWS V13.00,2013-04-20 02:45:00,
2013-04-19 20:50:00,40.6,24.9,29.85,North,0,0.0,0.0,53,0.00,,SKC,0.00,VWS V13.00,2013-04-20 02:50:00,
2013-04-19 20:55:00,40.6,25.8,29.85,North,0,0.0,0.0,55,0.00,,SKC,0.00,VWS V13.00,2013-04-20 02:55:00,
2013-04-19 21:00:00,40.3,25.9,29.85,North,0,0.0,0.0,56,0.00,,SKC,0.00,VWS V13.00,2013-04-20 03:00:00,
2013-04-19 21:05:00,39.9,26.4,29.85,North,0,0.0,0.0,58,0.00,,SKC,0.00,VWS V13.00,2013-04-20 03:05:00,
2013-04-19 21:10:00,39.7,26.6,29.85,North,0,0.0,0.0,59,0.00,,SKC,0.00,VWS V13.00,2013-04-20 03:10:00,
2013-04-19 21:15:00,39.4,27.5,29.85,North,0,0.0,0.0,62,0.00,,SKC,0.00,VWS V13.00,2013-04-20 03:15:00,
2013-04-19 21:20:00,39.0,27.9,29.85,North,0,0.0,0.0,64,0.00,,SKC,0.00,VWS V13.00,2013-04-20 03:20:00,
2013-04-19 21:25:00,38.7,28.7,29.85,North,0,0.0,0.0,67,0.00,,SKC,0.00,VWS V13.00,2013-04-20 03:25:00,
2013-04-19 21:31:00,38.5,29.2,29.85,North,0,0.0,0.0,69,0.00,,SKC,0.00,VWS V13.00,2013-04-20 03:31:00,
2013-04-19 21:36:00,38.1,28.9,29.85,North,0,0.0,0.0,69,0.00,,SKC,0.00,VWS V13.00,2013-04-20 03:36:00,
2013-04-19 21:41:00,38.1,29.2,29.85,North,0,0.0,0.0,70,0.00,,SKC,0.00,VWS V13.00,2013-04-20 03:41:00,
2013-04-19 21:46:00,38.1,29.9,29.85,North,0,0.0,0.0,72,0.00,,SKC,0.00,VWS V13.00,2013-04-20 03:46:00,
2013-04-19 21:51:00,38.1,29.9,29.85,North,0,0.0,0.0,72,0.00,,SKC,0.00,VWS V13.00,2013-04-20 03:51:00,
2013-04-19 21:56:00,38.1,30.2,29.85,North,0,0.0,0.0,73,0.00,,SKC,0.00,VWS V13.00,2013-04-20 03:56:00,
2013-04-19 22:01:00,38.3,30.8,29.85,North,0,0.0,0.0,74,0.00,,SKC,0.00,VWS V13.00,2013-04-20 04:01:00,
2013-04-19 22:06:00,38.3,30.8,29.85,North,0,0.0,0.0,74,0.00,,SKC,0.00,VWS V13.00,2013-04-20 04:06:00,
2013-04-19 22:12:00,38.3,30.8,29.85,North,0,0.0,0.0,74,0.00,,SKC,0.00,VWS V13.00,2013-04-20 04:12:00,
2013-04-19 22:17:00,38.5,31.3,29.85,North,0,0.0,0.0,75,0.00,,SKC,0.00,VWS V13.00,2013-04-20 04:17:00,
2013-04-19 22:22:00,38.5,31.3,29.85,North,0,0.0,0.0,75,0.00,,SKC,0.00,VWS V13.00,2013-04-20 04:22:00,
2013-04-19 22:27:00,38.5,30.9,29.85,North,0,0.0,0.0,74,0.00,,SKC,0.00,VWS V13.00,2013-04-20 04:27:00,
2013-04-19 22:32:00,38.3,30.8,29.85,North,0,0.0,0.0,74,0.00,,SKC,0.00,VWS V13.00,2013-04-20 04:32:00,
2013-04-19 22:37:00,38.3,30.8,29.85,North,0,0.0,0.0,74,0.00,,SKC,0.00,VWS V13.00,2013-04-20 04:37:00,
2013-04-19 22:42:00,37.9,30.4,29.85,North,0,0.0,0.0,74,0.00,,SKC,0.00,VWS V13.00,2013-04-20 04:42:00,
2013-04-19 22:47:00,37.6,30.1,29.85,North,0,0.0,0.0,74,0.00,,SKC,0.00,VWS V13.00,2013-04-20 04:47:00,
2013-04-19 22:52:00,37.4,30.2,29.85,North,0,0.0,0.0,75,0.00,,SKC,0.00,VWS V13.00,2013-04-20 04:52:00,
2013-04-19 22:57:00,37.0,29.9,29.85,North,0,0.0,0.0,75,0.00,,SKC,0.00,VWS V13.00,2013-04-20 04:57:00,
2013-04-19 23:02:00,36.9,30.0,29.85,North,0,0.0,0.0,76,0.00,,SKC,0.00,VWS V13.00,2013-04-20 05:02:00,
2013-04-19 23:07:00,36.7,30.2,29.85,North,0,0.0,0.0,77,0.00,,SKC,0.00,VWS V13.00,2013-04-20 05:07:00,
2013-04-19 23:12:00,36.7,30.2,29.85,North,0,0.0,0.0,77,0.00,,SKC,0.00,VWS V13.00,2013-04-20 05:12:00,
2013-04-19 23:17:00,36.3,29.8,29.85,North,0,0.0,0.0,77,0.00,,SKC,0.00,VWS V13.00,2013-04-20 05:17:00,
2013-04-19 23:22:00,36.1,30.0,29.85,North,0,0.0,0.0,78,0.00,,SKC,0.00,VWS V13.00,2013-04-20 05:22:00,
2013-04-19 23:27:00,36.0,29.8,29.85,North,0,0.0,0.0,78,0.00,,SKC,0.00,VWS V13.00,2013-04-20 05:27:00,
2013-04-19 23:32:00,36.1,30.0,29.85,North,0,0.0,0.0,78,0.00,,SKC,0.00,VWS V13.00,2013-04-20 05:32:00,
2013-04-19 23:37:00,35.8,29.9,29.85,North,0,0.0,0.0,79,0.00,,SKC,0.00,VWS V13.00,2013-04-20 05:37:00,
2013-04-19 23:42:00,35.8,30.2,29.82,North,0,0.0,0.0,80,0.00,,SKC,0.00,VWS V13.00,2013-04-20 05:42:00,
2013-04-19 23:47:00,35.8,30.2,29.82,North,0,0.0,0.0,80,0.00,,SKC,0.00,VWS V13.00,2013-04-20 05:47:00,
2013-04-19 23:52:00,36.0,30.4,29.82,North,0,0.0,0.0,80,0.00,,SKC,0.00,VWS V13.00,2013-04-20 05:52:00,
2013-04-19 23:58:00,35.8,30.5,29.82,North,0,0.0,0.0,81,0.00,,SKC,0.00,VWS V13.00,2013-04-20 05:58:00,